STARLINK-3744 (52304 NORAD) Tracking and Keplerian Element Data

This shows tracking and keplerian element data for the satellite.

Feedback or suggestion? Click here.




ElementValue
Catalog52304
NameSTARLINK-3744
Epoch Orbit130
Epoch Day167.08334491
Epoch Year2022
RAAN100.6306
Inclination53.2159
Eccentricity0.0003928
Argument of Perigee10.9974
Mean Anonmoly300.3272
Mean Motion15.73205112
Decay Rate0.00042786
L11 52304U 22041AV 22167.08334491 .00042786 00000+0 30756-3 0 9993
L22 52304 53.2159 100.6306 0003928 10.9974 300.3272 15.73205112 1307

Live tracking and technical data element details for STARLINK-3744 (NORAD 52304). STARLINK-3744 can be tracked NOW for your location showing map with azimuth and elevation plus other details from your city location.

Track the satellite on the map from your city or location and see movement details for azimuth, elevation, latitude, longitude, range, height, and movement on the map or in text.







IsCatalogInMostPopularTable: catalog: 52304, numindb: 1
Update: records affected: 1



GetName: 52304 STARLINK-3744

Hit Count: updated at: Mon, 27 Jun 2022 04:53:09 GMT